[[{"header":{"parameterUnit":"m.s-1","parameterCategory":1,"la1":30.2991,"la2":30.254,"lo1":-89.0895,"lo2":-89.0444,"dy":0.0017,"dx":0.0017,"nx":28,"ny":28,"refTime":"2025-04-13T03:00:00:Z","depth":0,"parameterNumber":2,"parameterNumberName":"U-component_of_WINDS"},"data":[0,0,0,0,0,0,0,0,0,0,0,0,0,0,0,0,0,0,0,0,0,0,0,0,0,0,0,0,0,0,0,0,0,0,0,0,0,0,0,0,0,0,0,0,0,0,0,0,0,0,0,0,0,0,0,0,0,0,2.2452,2.2453,0,2.2474,2.2474,2.2474,2.246,2.2459,2.2459,2.2458,2.248,2.2481,2.2482,0,0,0,0,0,0,0,0,0,0,0,0,0,2.2399,2.24,2.2452,2.2453,2.2453,2.2474,2.2474,2.2474,2.246,2.2459,2.2459,2.2458,2.248,2.2481,2.2483,0,0,0,0,0,0,0,0,0,0,0,0,0,2.2421,2.24,2.2452,2.2448,2.2448,2.2474,2.2474,2.2474,2.246,2.2459,2.2458,2.2457,2.2479,2.2481,2.2483,2.2513,0,0,2.2488,2.2489,0,0,0,0,0,0,0,0,2.242,2.2423,2.2449,2.2449,2.2449,2.2463,2.2463,2.2487,2.2461,2.2456,2.2458,2.2457,2.2475,2.2477,2.2483,2.2514,2.2515,2.2488,2.2489,2.249,2.2491,0,0,0,0,0,0,0,2.2418,2.2422,2.2461,2.2449,2.2449,2.2445,2.2447,2.2468,2.2471,2.2456,2.2455,2.2458,2.2475,2.2482,2.2484,2.2516,2.2488,2.249,2.2491,2.2492,2.2571,2.2572,0,0,0,0,0,0,2.2417,2.2421,2.246,2.2461,2.2432,2.2447,2.2449,2.2459,2.247,2.2471,2.2459,2.2457,2.2479,2.2482,2.2485,2.252,2.249,2.2492,2.2493,2.257,2.2571,2.2572,0,0,0,0,0,0,2.2416,2.2421,2.2459,2.2441,2.2446,2.2449,2.246,2.246,2.2467,2.2472,2.2473,2.2465,2.2479,2.2482,2.2506,2.252,2.2493,2.2494,2.2568,2.257,2.2571,2.2591,0,0,0,0,0,0,2.2415,2.2421,2.2432,2.2441,2.2447,2.248,2.2461,2.2462,2.247,2.2468,2.2478,2.2479,2.2478,2.2503,2.2508,2.2522,2.2496,2.2567,2.2569,2.2571,2.2589,2.2593,2.2596,0,0,0,0,0,2.2413,2.2438,2.2433,2.2438,2.2462,2.2481,2.2484,2.2482,2.2471,2.2483,2.2486,2.2479,2.2518,2.2506,2.2511,2.2526,2.2566,2.2569,2.2571,2.2587,2.2592,2.2596,0,0,0,0,0,0,2.2431,2.2439,2.2434,2.2462,2.2471,2.2479,2.2494,2.2488,2.25,2.2498,2.2495,2.2498,2.2522,2.2527,2.2513,2.2555,2.254,2.2544,2.2551,2.2556,2.256,2.2558,2.2497,0,0,0,0,0,2.2438,2.2453,2.246,2.2484,2.2489,2.249,2.2499,2.2497,2.2506,2.251,2.2514,2.2524,2.2538,2.2547,2.2561,2.259,2.2591,2.2603,2.2606,2.2609,2.2612,2.2626,2.2631,2.258,2.258,2.258,0,0,2.2453,2.2459,2.2469,2.2488,2.2494,2.251,2.2494,2.2511,2.2523,2.2512,2.2534,2.2538,2.2548,2.2574,2.2586,2.2579,2.2627,2.2612,2.2615,2.2616,2.2629,2.2634,2.2638,2.2581,2.2581,2.2581,0,0,2.2488,2.2495,2.2515,2.2522,2.2532,2.2533,2.2538,2.2546,2.2548,2.257,2.2563,2.2576,2.2601,2.2608,2.2615,2.2651,2.2645,2.2656,2.2675,2.2689,2.2693,2.2696,2.2708,2.2713,2.2659,2.2659,2.2659,0,2.2505,2.2529,2.2526,2.2544,2.2552,2.2543,2.2563,2.257,2.2584,2.2589,2.2581,2.2611,2.2617,2.2644,2.2653,2.2659,2.2664,2.2655,2.2693,2.2696,2.2699,2.271,2.2715,2.266,2.266,2.266,2.266,0,2.2549,2.2565,2.258,2.2593,2.2603,2.2622,2.2622,2.2632,2.2629,2.263,2.2652,2.2659,2.2674,2.268,2.2677,2.2706,2.2701,2.2693,2.2678,2.2705,2.2716,2.272,2.2662,2.2661,2.2661,2.2661,0,0,2.2596,2.2607,2.2612,2.2617,2.2628,2.264,2.2658,2.2671,2.2679,2.2689,2.2704,2.2725,2.2717,2.2724,2.2722,2.2735,2.2761,2.2725,2.2725,2.273,2.2792,2.2798,2.2803,2.2757,2.2758,2.2759,2.2791,0,2.2631,2.2662,2.266,2.2689,2.2703,2.2695,2.271,2.2718,2.272,2.2732,2.2734,2.2748,2.2737,2.2741,2.2753,2.2756,2.2774,2.2754,2.277,2.277,2.2767,2.2808,2.2814,2.2844,2.2795,2.2796,2.2796,0,2.2675,2.2686,2.2716,2.2723,2.2729,2.2743,2.2754,2.2766,2.2774,2.2775,2.2783,2.2779,2.2796,2.2781,2.2805,2.2791,2.2798,2.28,2.2801,2.2801,2.2784,2.2809,2.2854,2.2858,2.2803,2.2802,2.2802,0,2.2705,2.2727,2.2748,2.2753,2.2761,2.2771,2.2775,2.2782,2.279,2.28,2.2805,2.2817,2.2824,2.2833,2.2832,2.2821,2.2855,2.284,2.2855,2.2855,2.2862,2.2862,2.2908,2.2868,2.2868,2.2868,2.2868,0,2.2743,2.2762,2.2761,2.2773,2.2794,2.2791,2.2811,2.2814,2.282,2.2833,2.2827,2.2839,2.2837,2.2849,2.2848,2.2867,2.287,2.287,2.287,2.287,2.287,2.2874,2.2871,2.2869,2.2869,2.2869,2.2869,0,2.2779,2.2779,2.2801,2.2807,2.2809,2.2824,2.2829,2.284,2.2841,2.2857,2.2861,2.2863,2.2876,2.2876,2.2892,2.2891,2.2914,2.2912,2.2911,2.291,2.2925,2.2923,2.2974,2.298,2.2938,2.2938,2.2938,0,2.2803,2.2817,2.2824,2.2832,2.2837,2.285,2.2857,2.2855,2.2863,2.2873,2.2883,2.2896,2.2906,2.2928,2.293,2.2942,2.2939,2.2956,2.2941,2.294,2.2938,2.2936,2.2937,2.2959,2.2959,2.296,2.296,0,2.2845,2.2844,2.2855,2.2866,2.2876,2.2884,2.2892,2.2899,2.2898,2.2907,2.292,2.2928,2.2944,2.2956,2.2967,2.2971,2.2965,2.2965,2.2969,2.2969,2.2968,2.2967,2.2918,2.2964,2.2963,2.2963,2.2963,2.2963,2.2875,2.2886,2.2893,2.2905,2.2911,2.2918,2.2929,2.2931,2.2942,2.2954,2.2952,2.2967,2.2974,2.2988,2.2993,2.3004,2.2998,2.3004,2.3005,2.3006,2.3007,2.2967,2.3006,2.3006,2.3006,2.3006,2.3006,0,2.2915,2.2919,2.293,2.2941,2.2951,2.2944,2.2953,2.2961,2.2974,2.2981,2.299,2.3005,2.3017,2.302,2.3031,2.304,2.3037,2.3043,2.3041,2.3042,2.3013,2.3008,2.3044,2.3044,2.3044,2.3044,2.3044,2.3044,2.2937,2.2956,2.2956,2.2977,2.298,2.2994,2.2999,2.3006,2.3011,2.3028,2.3037,2.3039,2.3044,2.3056,2.3066,2.3066,2.307,2.3077,2.3076,2.3048,2.3044,2.3041,2.3036,2.3078,2.3078,2.3104,2.3105,2.3105]},{"header":{"parameterUnit":"m.s-1","parameterCategory":1,"la1":30.2991,"la2":30.254,"lo1":-89.0895,"lo2":-89.0444,"dy":0.0017,"dx":0.0017,"nx":28,"ny":28,"refTime":"2025-04-13T03:00:00:Z","depth":0,"parameterNumber":3,"parameterNumberName":"V-component_of_WINDS"},"data":[0,0,0,0,0,0,0,0,0,0,0,0,0,0,0,0,0,0,0,0,0,0,0,0,0,0,0,0,0,0,0,0,0,0,0,0,0,0,0,0,0,0,0,0,0,0,0,0,0,0,0,0,0,0,0,0,0,0,4.5939,4.5938,0,4.5924,4.5924,4.5923,4.5881,4.588,4.5879,4.5879,4.5864,4.5864,4.5865,0,0,0,0,0,0,0,0,0,0,0,0,0,4.5931,4.5932,4.5939,4.5938,4.5938,4.5924,4.5924,4.5923,4.5881,4.588,4.5879,4.5878,4.5864,4.5864,4.5865,0,0,0,0,0,0,0,0,0,0,0,0,0,4.5927,4.5932,4.5939,4.5915,4.5913,4.5924,4.5924,4.5923,4.5882,4.588,4.5879,4.5878,4.5864,4.5864,4.5865,4.5897,0,0,4.5867,4.5868,0,0,0,0,0,0,0,0,4.5928,4.5928,4.5919,4.5917,4.5915,4.5903,4.5916,4.5915,4.5882,4.5894,4.5878,4.5877,4.5878,4.5878,4.5878,4.5896,4.5896,4.5867,4.5868,4.5868,4.5868,0,0,0,0,0,0,0,4.5928,4.5928,4.5933,4.5919,4.5916,4.5906,4.5904,4.5915,4.5894,4.5893,4.5889,4.5888,4.5877,4.5877,4.5877,4.5896,4.5867,4.5868,4.5868,4.5869,4.594,4.5942,0,0,0,0,0,0,4.5931,4.5929,4.5933,4.5932,4.5918,4.5907,4.5905,4.5908,4.5894,4.589,4.5889,4.5886,4.5877,4.5876,4.5877,4.5913,4.5868,4.5869,4.5869,4.5939,4.5941,4.5942,0,0,0,0,0,0,4.5931,4.5932,4.5934,4.593,4.5929,4.5909,4.5913,4.5909,4.5909,4.5891,4.5887,4.5894,4.5876,4.5876,4.5892,4.5912,4.5869,4.587,4.5937,4.5939,4.5941,4.5987,0,0,0,0,0,0,4.5931,4.5933,4.5944,4.593,4.5929,4.595,4.5914,4.5909,4.591,4.5906,4.5894,4.5891,4.5875,4.5892,4.5893,4.5912,4.587,4.5935,4.5938,4.5941,4.5984,4.5991,4.5996,0,0,0,0,0,4.5931,4.5958,4.5945,4.5946,4.5943,4.5951,4.595,4.5931,4.5912,4.5924,4.5913,4.5891,4.591,4.5894,4.5895,4.5915,4.5934,4.5937,4.5941,4.5981,4.5989,4.5996,0,0,0,0,0,0,4.5974,4.5955,4.5941,4.5963,4.5959,4.5944,4.5958,4.594,4.5941,4.5937,4.5913,4.591,4.5931,4.5924,4.5907,4.5945,4.5918,4.5922,4.5949,4.5956,4.5963,4.5964,4.5871,0,0,0,0,0,4.5986,4.5994,4.5977,4.5998,4.5997,4.5978,4.598,4.5966,4.596,4.5958,4.5948,4.5944,4.5949,4.5952,4.5956,4.5983,4.598,4.5997,4.6004,4.6009,4.6012,4.6027,4.6034,4.5953,4.5953,4.5953,0,0,4.6011,4.6002,4.6008,4.6007,4.6002,4.601,4.5977,4.5987,4.5993,4.596,4.5975,4.5968,4.5961,4.5984,4.5993,4.5979,4.6034,4.6013,4.6018,4.6018,4.6031,4.6039,4.6046,4.5955,4.5955,4.5955,0,0,4.6061,4.6055,4.6072,4.6068,4.6061,4.6048,4.6052,4.604,4.6034,4.6049,4.6024,4.6031,4.604,4.6037,4.6036,4.6086,4.6067,4.6088,4.6121,4.6135,4.6142,4.6147,4.6165,4.6172,4.6091,4.6092,4.6092,0,4.6093,4.6105,4.6083,4.6095,4.6096,4.6066,4.6084,4.6081,4.6075,4.6076,4.6061,4.6072,4.6065,4.6087,4.6099,4.61,4.6104,4.6089,4.6143,4.6148,4.6153,4.617,4.6177,4.6094,4.6094,4.6094,4.6093,0,4.6145,4.6153,4.6168,4.6164,4.6166,4.6181,4.6162,4.6167,4.6152,4.6141,4.6157,4.6149,4.615,4.6154,4.614,4.6174,4.6166,4.6147,4.6119,4.6164,4.6179,4.6185,4.6098,4.6097,4.6096,4.6096,0,0,4.622,4.6204,4.621,4.6208,4.6198,4.6205,4.6219,4.622,4.6225,4.6222,4.6234,4.6242,4.6225,4.6224,4.621,4.6222,4.6263,4.6202,4.6201,4.6214,4.63,4.6315,4.6322,4.625,4.6252,4.6252,4.6301,0,4.6267,4.629,4.6272,4.6298,4.6306,4.6278,4.629,4.6286,4.6277,4.6282,4.6272,4.6279,4.6255,4.6255,4.6266,4.6256,4.628,4.6252,4.6261,4.6261,4.6263,4.633,4.6345,4.6391,4.6307,4.6308,4.6309,0,4.6325,4.6325,4.6353,4.6342,4.6345,4.6356,4.6356,4.6362,4.6357,4.6349,4.6349,4.6331,4.6344,4.6318,4.6336,4.6318,4.632,4.6316,4.6317,4.6317,4.6288,4.6332,4.6406,4.6413,4.6318,4.6317,4.6316,0,4.6378,4.6385,4.6402,4.6401,4.6389,4.6398,4.6393,4.6387,4.6389,4.639,4.6391,4.6393,4.6394,4.6397,4.638,4.6362,4.6401,4.6372,4.6395,4.6395,4.6404,4.6404,4.6479,4.6406,4.6406,4.6406,4.6406,0,4.6432,4.645,4.6426,4.6436,4.6456,4.6435,4.6455,4.6447,4.6442,4.6451,4.6427,4.6436,4.6414,4.6421,4.6408,4.6425,4.6426,4.642,4.6417,4.6423,4.6423,4.6424,4.642,4.6408,4.6407,4.6407,4.6407,0,4.6494,4.6479,4.6496,4.6483,4.6481,4.6495,4.6485,4.6494,4.6484,4.6496,4.6497,4.6481,4.6488,4.6471,4.6476,4.6467,4.6492,4.6483,4.6494,4.6491,4.6515,4.6513,4.6593,4.6603,4.6524,4.6524,4.6525,0,4.653,4.6543,4.6532,4.6536,4.6533,4.6541,4.6543,4.6523,4.6527,4.6523,4.6533,4.6538,4.6541,4.6553,4.6542,4.6545,4.6537,4.6564,4.6537,4.6543,4.6537,4.6537,4.6538,4.657,4.6571,4.6572,4.6572,0,4.6595,4.6587,4.6591,4.6593,4.6597,4.6598,4.6597,4.6602,4.6581,4.6586,4.6593,4.6595,4.66,4.6606,4.6607,4.6602,4.6584,4.6581,4.6587,4.6593,4.6598,4.6596,4.651,4.6579,4.6579,4.6578,4.6578,4.6578,4.6645,4.6655,4.665,4.6655,4.6653,4.6653,4.6661,4.6652,4.6657,4.666,4.6648,4.6658,4.6653,4.6653,4.6651,4.6658,4.6645,4.6653,4.6655,4.6658,4.6662,4.6597,4.6658,4.6658,4.6658,4.6658,4.6657,0,4.6709,4.6704,4.671,4.6709,4.6714,4.6697,4.6695,4.67,4.6709,4.6707,4.671,4.6719,4.6724,4.6713,4.6717,4.6725,4.6717,4.6727,4.6726,4.6726,4.6672,4.6667,4.6734,4.6734,4.6734,4.6734,4.6734,4.6734,4.6743,4.676,4.6751,4.6767,4.6762,4.6772,4.6772,4.6772,4.677,4.6781,4.6785,4.6778,4.6772,4.6776,4.678,4.6777,4.678,4.6793,4.6787,4.6737,4.6729,4.6722,4.6717,4.6793,4.6793,4.6839,4.684,4.684]}]]